Location: Buchloe
(48.0161°N, 10.7316°E)
Time: 03:33:23
(UTC+02:00)

ISS - Pass Details

Date: 15 July 2025
Orbit: 413 x 417 km, 51.6° (Epoch: 12 July)

Event Time Altitude Azimuth Distance (km) Brightness Sun altitude
Rises 00:21:03 0° 291° (WNW) 2,354 0.6 -19.1°
Reaches altitude 10° 00:23:10 10° 294° (WNW) 1,491 -0.5 -19.2°
Maximum altitude 00:26:29 63° 16° (NNE) 468 -3.4 -19.3°
Enters shadow 00:27:34 38° 83° (E) 656 -2.9 -19.4°
